Flag for Iran Weather past 2 weeks in Mashhad, Iran

Now
32 °F

Light snow. Ice fog.


Feels Like: 26 °F
Forecast: 30 / 46 °F
Wind: 7 mph from Southeast

Location: Mashhad Airport

Current Time: Feb 27, 2015 at 4:26:50 AM

Latest Report: Feb 27, 2015 at 4:00 AM


Visibility: 3 mi

Pressure: 30.24 "Hg

Humidity: 100%

Dew point: 32 °F

Location of MashhadLocation

Historic Weather in Mashhad — Graph

°F

Mashhad temperature yesterday

Maximum temperature yesterday: 45 °F (at 11:30 AM)
Minimum temperature yesterday: 30 °F (at 4:30 AM)
Average temperature yesterday: 37 °F

Past Weeks' High & Low Weather Summary

 TemperatureHumidityPressure
High66 °F (Feb 12, 12:30 PM)100% (Feb 12, 6:00 PM)30.27 "Hg (Feb 12, 6:00 PM)
Low28 °F (Feb 25, 6:00 AM)39% (Feb 24, 11:30 AM)29.68 "Hg (Feb 21, 3:20 AM)
Average43 °F84%30.01 "Hg
* Reported Feb 12 2:30 AM — Feb 27 3:20 AM, Mashhad, Weather by CustomWeather, © 2015

Note: Actual official high and low records may vary slightly from our data, if they occured in-between our weather recording intervals... More about our weather records

Advertising

Mashhad weather history for previous 24 hours

 ConditionsComfort  
Time TempWeatherWind HumidityBarometerVisibility
3:20 AM
Fri, Feb 27
32 °FPartly cloudy.7 mph100%30.24 "HgN/A
3:00 AM32 °FPartly cloudy.9 mph100%30.24 "Hg5 mi
2:30 AM32 °FSnow flurries. Ice fog.9 mph100%30.24 "Hg2 mi
2:00 AM34 °FSnow flurries. Fog.9 mph100%30.27 "Hg2 mi
1:30 AM34 °FSnow flurries. Overcast.9 mph100%30.27 "Hg4 mi
12:30 AM34 °FSnow flurries. Fog.12 mph100%30.27 "Hg4 mi
12:00 AM34 °FSnow flurries. Overcast.12 mph100%30.24 "Hg4 mi
11:30 PM
Thu, Feb 26
34 °FSnow flurries. Overcast.9 mph100%30.24 "Hg4 mi
11:00 PM34 °FPassing clouds.9 mph100%30.24 "Hg5 mi
10:30 PM34 °FSnow flurries. Overcast.9 mph100%30.24 "Hg4 mi
10:00 PM34 °FSnow flurries. Fog.14 mph100%30.24 "Hg3 mi
9:30 PM36 °FSnow flurries. Overcast.12 mph93%30.27 "Hg3 mi
9:00 PM36 °FSnow flurries. Overcast.7 mph93%30.24 "Hg4 mi
8:30 PM36 °FSnow flurries. Overcast.14 mph81%30.24 "Hg4 mi
8:00 PM37 °FPassing clouds.12 mph70%30.24 "HgN/A
7:30 PM37 °FPassing clouds.12 mph75%30.24 "HgN/A
7:00 PM37 °FPassing clouds.14 mph70%30.21 "HgN/A
6:30 PM37 °FPassing clouds.16 mph70%30.21 "HgN/A
6:00 PM37 °FPassing clouds.18 mph70%30.21 "HgN/A
5:30 PM37 °FPartly sunny.16 mph70%30.18 "HgN/A
5:00 PM39 °FPartly sunny.16 mph65%30.18 "HgN/A
4:30 PM39 °FPartly sunny.21 mph65%30.18 "HgN/A
4:00 PM41 °FPartly sunny.14 mph61%30.18 "HgN/A
3:30 PM41 °FPartly sunny.12 mph53%30.15 "HgN/A
3:00 PM41 °FPartly sunny.12 mph53%30.15 "HgN/A
2:30 PM41 °FPartly sunny.16 mph57%30.15 "HgN/A
2:00 PM43 °FPartly sunny.14 mph57%30.15 "HgN/A
1:30 PM43 °FPartly sunny.9 mph57%30.15 "HgN/A
1:00 PM43 °FBroken clouds.14 mph53%30.15 "HgN/A
12:30 PM43 °FPartly sunny.9 mph57%30.15 "HgN/A
12:00 PM45 °FScattered clouds.14 mph53%30.15 "HgN/A
11:30 AM45 °FScattered clouds.9 mph57%30.15 "HgN/A
11:00 AM43 °FScattered clouds.5 mph57%30.15 "HgN/A
10:30 AM41 °FScattered clouds.7 mph66%30.18 "HgN/A
9:30 AM41 °FPassing clouds.7 mph61%30.18 "HgN/A
9:00 AM39 °FPassing clouds.9 mph65%30.18 "HgN/A
8:30 AM37 °FPassing clouds.9 mph75%30.18 "HgN/A
6:30 AM30 °FPassing clouds.5 mph100%30.15 "HgN/A
6:00 AM30 °FClear.5 mph93%30.15 "Hg10 mi
5:30 AM30 °FClear.No wind100%30.12 "Hg10 mi
5:00 AM32 °FClear.5 mph93%30.12 "Hg10 mi
4:30 AM30 °FClear.5 mph93%30.12 "Hg10 mi
4:00 AM32 °FClear.5 mph87%30.09 "Hg10 mi
Weather by CustomWeather, © 2015

See weather overviewHow to use our weather pages